Simultaneous Nadir Overpasses (SNOs) Predictions

Prediction of SNOs between AQUA and GOES-15 Satellite Orbit:

Table of predicted SNOs for the next 14.0 days since TLE Epoch: 5/30/2015
Index Date Time (AQUA) AQUA Lat,Lon GOES-15 Lat,Lon Distance(km) Time Diff (sec)
1 05/30/2015 22:23:36 0.64,-131.95 -0.02,-135.10 357.29 80
2 05/31/2015 10:44:53 0.41,-137.12 0.00,-135.10 229.80 80
3 06/02/2015 10:32:43 -0.21,-134.18 0.00,-135.03 98.36 80
4 06/02/2015 22:54:06 -0.91,-139.37 0.01,-135.00 496.09 80
5 06/04/2015 10:20:32 -0.78,-131.22 0.00,-134.96 425.76 80
6 06/04/2015 22:41:56 -0.28,-136.42 0.01,-134.93 168.83 80
7 06/06/2015 22:29:46 0.31,-133.46 0.01,-134.85 157.93 80
8 06/07/2015 10:51:01 0.79,-138.62 -0.02,-134.84 429.66 80
9 06/08/2015 22:17:35 0.91,-130.51 0.00,-134.76 484.27 80
10 06/09/2015 10:38:50 0.19,-135.66 -0.01,-134.76 103.47 80
11 06/11/2015 10:26:39 -0.42,-132.71 -0.01,-134.67 222.27 80
12 06/11/2015 22:48:03 -0.68,-137.90 0.03,-134.63 372.80 80




NCC Satellite Simultaneous Nadir Overpasses (SNOs) Prediction Service
